Location: Koussan�
(15.2012°N, 12.5548°W)
Time: 01:19:50
(UTC+00:00)

Okean O Rocket - Pass Details

Date: 20 October 2020
Orbit: 623 x 645 km, 98.2° (Epoch: 25 November)

Event Time Altitude Azimuth Distance (km) Brightness Sun altitude
Rises 18:49:48 0° 177° (S) 2,932 5.1 -6.3°
Reaches altitude 10° 18:52:02 10° 182° (S) 2,022 4.4 -6.9°
Maximum altitude 18:56:20 53° 259° (WSW) 781 2.6 -7.9°
Drops below altitude 10° 19:00:36 10° 336° (NNW) 2,011 4.4 -8.9°
Sets 19:02:50 0° 341° (NNW) 2,916 5.2 -9.4°
